Regional Weather Roundup
Issued by NWS

Home | Current Version | Previous Version | Graphics & Text | Print | Product List | Glossary On
Versions: 1 2 3 4 5 6 7 8 9 10 11 12 13 14 15 16 17 18 19 20 21 22 23 24 25 26 27 28 29 30 31 32 33 34 35 36 37 38 39 40 41 42 43 44 45 46 47 48 49 50
912
ASUS44 KJAN 241210
RWRMS

MISSISSIPPI HOURLY WEATHER ROUNDUP
NATIONAL WEATHER SERVICE JACKSON MS
700 AM CDT FRI OCT 24 2014

NOTE: "FAIR: INDICATES FEW OR NO CLOUDS BELOW 12,000 FEET WITH NO
SIGNIFICANT WEATHER AND/OR OBSTRUCTIONS TO VISIBILITY.

MSZ001>002-007>008-010>013-018>021-025>028-034>036-241300-
NORTHWEST MISSISSIPPI

CITY           SKY/WX    TMP DP  RH WIND       PRES   REMARKS
CLARKSDALE     FAIR      45  45 100 CALM      30.16R
CLEVELAND      FAIR      46  46 100 CALM      30.14S FOG
GREENWOOD      PTCLDY    44  42  93 CALM      30.13S FOG
6HR MIN TEMP:  43; 6HR MAX TEMP:  49;

GREENVILLE     CLEAR     45  44  97 CALM      30.14S
6HR MIN TEMP:  43; 6HR MAX TEMP:  50;

GRENADA          N/A    N/A N/A N/A MISG        N/A
OLIVE BRANCH   PTCLDY    45  45 100 CALM      30.14R
OXFORD         FAIR      41  41 100 CALM      30.15S
TUNICA         FOG       43  41  93 CALM      30.15R VSB 1/2
$$

MSZ003>006-009-014>017-022>024-029>033-037>039-241300-
NORTHEAST MISSISSIPPI

CITY           SKY/WX    TMP DP  RH WIND       PRES   REMARKS
COLUMBUS AFB   CLEAR     49  48  96 NW3       30.12R
6HR MIN TEMP:  49; 6HR MAX TEMP:  55;

CORINTH        FOG       45  43  93 CALM      30.12S VSB 1/4
GOLDN TRIANGLE CLEAR     48  43  81 NW5       30.11R
STARKVILLE     FAIR      45  45 100 CALM      30.12R FOG
TUPELO         PTCLDY    46  44  93 N3        30.12R
6HR MIN TEMP:  46; 6HR MAX TEMP:  53;

$$

MSZ040-058-241300-
CENTRAL MISSISSIPPI

CITY           SKY/WX    TMP DP  RH WIND       PRES   REMARKS
JACKSON INTL   PTCLDY    47  45  93 CALM      30.13R
6HR MIN TEMP:  43; 6HR MAX TEMP:  49;

JACKSON HAWKNS CLEAR     46  44  93 CALM      30.13R
6HR MIN TEMP:  46; 6HR MAX TEMP:  51;

MERIDIAN KEY   PTCLDY    45  43  93 CALM      30.11R
6HR MIN TEMP:  44; 6HR MAX TEMP:  49;

MERIDIAN NAS   MOCLDY    48  46  93 CALM      30.11R
6HR MIN TEMP:  46; 6HR MAX TEMP:  51;

RAYMOND        FAIR      39  36  87 CALM      30.13S HAZE
VICKSBURG      FOG       39  38  96 NW3       30.14S VSB 1
6HR MIN TEMP:  38; 6HR MAX TEMP:  47;

$$

MSZ059>079-241300-
SOUTH MISSISSIPPI

CITY           SKY/WX    TMP DP  RH WIND       PRES   REMARKS
BROOKHAVEN     FAIR      46  46 100 CALM      30.13S FOG
COLUMBIA         N/A    N/A N/A N/A MISG        N/A
HATTIESBURG    CLEAR     45  44  97 CALM      30.11R
6HR MIN TEMP:  45; 6HR MAX TEMP:  54;

MCCOMB         CLEAR     49  46  90 NW3       30.11S
6HR MIN TEMP:  47; 6HR MAX TEMP:  54;

NATCHEZ        CLOUDY    46  43  87 CALM      30.14R VSB 1/4
6HR MIN TEMP:  45; 6HR MAX TEMP:  48;

PINE BELT      CLEAR     45  41  87 CALM      30.11S
6HR MIN TEMP:  45; 6HR MAX TEMP:  52;

$$

MSZ080>082-241300-
COASTAL MISSISSIPPI

CITY           SKY/WX    TMP DP  RH WIND       PRES   REMARKS
BAY ST LOUIS   CLEAR     46  43  87 CALM      30.09
BILOXI         CLEAR     53  47  81 NE3       30.08S
6HR MIN TEMP:  53; 6HR MAX TEMP:  60;

PASCAGOULA     CLEAR     49  47  93 CALM      30.09R
6HR MIN TEMP:  46; 6HR MAX TEMP:  51;

GULFPORT       CLEAR     51  47  86 CALM      30.08S
6HR MIN TEMP:  50; 6HR MAX TEMP:  59;

$$



USA.gov is the U.S. government's official web portal to all federal, state and local government web resources and services.